Location: Dana
(41.8364°N, 106.7042°W)
Time: 10:34:42
(UTC+00:00)

Explorer 11/Cluster Stage 4 - Visible Passes

Search period start: 15 May 2026 00:00
Search period end: 25 May 2026 00:00
Orbit: 463 x 1174 km, 28.8° (Epoch: 14 May)

Date Brightness Start Highest point End Pass type
(mag) Time Alt. Az. Time Alt. Az. Time Alt. Az.
16 May 8.7 04:11:54 10° SSW 04:14:20 15° S 04:14:20 15° S visible
17 May 8.5 03:46:41 10° SSW 03:51:19 18° SSE 03:52:01 17° SSE visible
17 May 9.2 05:32:56 10° SW 05:33:16 11° SW 05:33:16 11° SW visible
18 May 8.5 03:21:29 10° SSW 03:26:24 18° SSE 03:29:30 14° SE visible
18 May 8.6 05:07:46 10° SW 05:10:45 20° SSW 05:10:45 20° SSW visible
19 May 8.6 02:56:21 10° SSW 03:01:27 19° SSE 03:06:20 10° ESE visible
19 May 8.2 04:42:37 10° SW 04:48:00 26° S 04:48:00 26° S visible
20 May 8.0 04:17:30 10° SW 04:23:45 28° S 04:25:03 26° SSE visible
20 May 9.1 06:05:18 10° WSW 06:06:15 13° WSW 06:06:15 13° WSW visible
21 May 8.2 03:52:25 10° SW 03:58:47 28° S 04:01:55 21° SE visible
21 May 8.7 05:40:10 10° WSW 05:43:07 20° SW 05:43:07 20° SW visible
22 May 8.2 03:27:21 10° SW 03:33:48 29° S 03:38:40 15° SE visible
22 May 8.4 05:15:03 10° WSW 05:19:51 25° SSW 05:19:51 25° SSW visible
23 May 8.3 03:02:21 10° SW 03:08:48 29° S 03:15:07 10° ESE visible
23 May 8.2 04:49:57 10° WSW 04:56:08 27° S 04:56:29 27° S visible
24 May 8.2 04:24:53 10° WSW 04:31:10 27° S 04:33:02 24° SSE visible
24 May 9.4 06:14:10 10° WSW 06:14:12 10° WSW 06:14:12 10° WSW visible
